Weather History for KOWA - December, 2011

Change the Weather History Date:

Wednesday, December 14, 2011

  Actual Average Record
Temperature  
Mean Temperature 39 °F -  
Max Temperature 41 °F 29 °F 55 °F (1998)
Min Temperature 37 °F 12 °F -18 °F (1985)
Degree Days  
Heating Degree Days 26    
Moisture  
Dew Point 38 °F    
Average Humidity 96    
Maximum Humidity 100    
Minimum Humidity 93    
Precipitation  
Precipitation 0.02 in - - ()
Sea Level Pressure  
Sea Level Pressure 29.78 in    
Wind  
Wind Speed 7 mph (SE)    
Max Wind Speed 14 mph    
Max Gust Speed 18 mph    
Visibility 4 miles    
Events Fog , Rain , Snow    
Averages and records for this station are not official NWS values.
T = Trace of Precipitation, MM = Missing Value Source: NWS Daily Summary

Daily Weather History Graph

Daily Weather History Graph

Search for Another Location

Airport or City:

Trip Planner

Search our weather history database for the weather conditions in past years. The results will help you decide how hot, cold, wet, or windy it might be!

Date:

Astronomy

Dec. 14, 2011 Rise Set
Actual Time 7:40 AM CST 4:34 PM CST
Civil Twilight 7:07 AM CST 5:08 PM CST
Nautical Twilight 6:30 AM CST 5:44 PM CST
Astronomical Twilight 5:55 AM CST 6:19 PM CST
Moon 9:02 PM CST (12/14) 10:19 AM CST (12/14)
Length of Visible Light 10h 00m
Length of Day
8h 54m
Waning Gibbous, 83% of the Moon is Illuminated
Dec 14
Waning Gibbous
Dec 17
Last Quarter
Dec 24
New
Jan 1
First Quarter
Jan 9
Full

Hourly Weather History & Observations

Time (CST) Temp. Windchill Dew Point Humidity Pressure Visibility Wind Dir Wind Speed Gust Speed Precip Events Conditions
12:13 AM 37.4 °F 33.8 °F 35.6 °F 93% 30.06 in 2.0 mi East 4.6 mph - N/A   Heavy Drizzle
12:33 AM 37.4 °F 32.1 °F 35.6 °F 93% 30.03 in 1.5 mi ESE 6.9 mph - N/A Snow Light Snow
12:53 AM 37.4 °F 32.1 °F 35.6 °F 93% 30.05 in 2.0 mi SE 6.9 mph - 0.01 in Snow Snow
1:14 AM 37.4 °F 32.1 °F 35.6 °F 93% 30.04 in 1.5 mi SE 6.9 mph - N/A Rain Heavy Rain
1:33 AM 37.4 °F 30.3 °F 35.6 °F 93% 29.99 in 1.5 mi ESE 10.4 mph - N/A   Heavy Drizzle
1:54 AM 37.4 °F 30.8 °F 35.6 °F 93% 30.00 in 1.8 mi SE 9.2 mph - N/A   Overcast
2:14 AM 37.4 °F 32.1 °F 35.6 °F 93% 30.00 in 2.0 mi ESE 6.9 mph - N/A   Overcast
2:34 AM 37.4 °F 31.4 °F 35.6 °F 93% 29.98 in 2.0 mi ESE 8.1 mph - N/A   Overcast
3:13 AM 37.4 °F 32.8 °F 35.6 °F 93% 29.97 in 1.5 mi ESE 5.8 mph - N/A   Overcast
3:33 AM 37.4 °F 31.4 °F 35.6 °F 93% 29.97 in 1.2 mi SE 8.1 mph - N/A   Overcast
3:53 AM 37.4 °F 31.4 °F 35.6 °F 93% 29.94 in 0.5 mi SE 8.1 mph - N/A Fog Fog
4:14 AM 37.4 °F 30.3 °F 35.6 °F 93% 29.93 in 0.2 mi SE 10.4 mph - N/A Rain Light Rain
4:33 AM 37.4 °F 30.3 °F 35.6 °F 93% 29.93 in 0.2 mi SE 10.4 mph - N/A Rain Light Rain
4:53 AM 37.4 °F 31.4 °F 37.4 °F 100% 29.92 in 0.5 mi SE 8.1 mph - N/A Rain Light Rain
5:33 AM 37.4 °F 30.8 °F 37.4 °F 100% 29.90 in 0.8 mi SE 9.2 mph - N/A Rain Rain
5:53 AM 37.4 °F 30.8 °F 37.4 °F 100% 29.90 in 0.8 mi SE 9.2 mph - N/A   Drizzle
6:13 AM 37.4 °F 31.4 °F 37.4 °F 100% 29.90 in 1.5 mi SSE 8.1 mph - N/A Rain Light Rain
6:34 AM 37.4 °F 31.4 °F 37.4 °F 100% 29.90 in 1.8 mi SSE 8.1 mph - N/A Rain Light Rain
6:53 AM 37.4 °F 30.8 °F 37.4 °F 100% 29.89 in 1.5 mi SSE 9.2 mph - N/A Rain Light Rain
7:14 AM 37.4 °F 30.8 °F 37.4 °F 100% 29.87 in 1.5 mi SE 9.2 mph - N/A Rain Light Rain
7:33 AM 37.4 °F 32.1 °F 37.4 °F 100% 29.86 in 1.2 mi SE 6.9 mph - N/A Rain Light Rain
7:53 AM 37.4 °F 31.4 °F 37.4 °F 100% 29.85 in 1.8 mi SE 8.1 mph - N/A Rain Light Rain
8:14 AM 37.4 °F 32.8 °F 37.4 °F 100% 29.85 in 1.2 mi SE 5.8 mph - N/A Rain Light Rain
8:34 AM 37.4 °F 32.1 °F 37.4 °F 100% 29.83 in 1.0 mi SE 6.9 mph - N/A Rain Light Rain
9:33 AM 39.2 °F 34.2 °F 37.4 °F 93% 29.83 in 1.0 mi SE 6.9 mph - N/A   Light Drizzle
9:53 AM 39.2 °F 34.2 °F 39.2 °F 100% 29.82 in 3.0 mi SE 6.9 mph - N/A   Overcast
10:15 AM 39.2 °F 34.2 °F 39.2 °F 100% 29.82 in 4.0 mi SSE 6.9 mph - N/A   Overcast
10:33 AM 39.2 °F 33.6 °F 39.2 °F 100% 29.82 in 4.0 mi SSE 8.1 mph - N/A   Overcast
10:53 AM 39.2 °F 33.6 °F 39.2 °F 100% 29.80 in 3.0 mi SSE 8.1 mph - N/A   Overcast
11:14 AM 39.2 °F 33.6 °F 39.2 °F 100% 29.78 in 2.5 mi SSE 8.1 mph - N/A Rain Rain
11:34 AM 39.2 °F 35.0 °F 39.2 °F 100% 29.77 in 3.0 mi SSE 5.8 mph - N/A Rain Rain
12:13 PM 39.2 °F 35.0 °F 39.2 °F 100% 29.74 in 3.0 mi SSE 5.8 mph - N/A Rain Heavy Rain
12:34 PM 39.2 °F 35.0 °F 39.2 °F 100% 29.73 in 10.0 mi SE 5.8 mph - N/A Rain Light Rain
12:54 PM 39.2 °F 35.0 °F 39.2 °F 100% 29.71 in 1.8 mi SE 5.8 mph - N/A Rain Rain
1:13 PM 39.2 °F 34.2 °F 39.2 °F 100% 29.70 in 7.0 mi SE 6.9 mph - N/A Rain Rain
1:34 PM 41.0 °F 36.4 °F 39.2 °F 93% 29.69 in 10.0 mi SE 6.9 mph - N/A Rain Light Rain
2:13 PM 41.0 °F 38.0 °F 39.2 °F 93% 29.68 in 7.0 mi SE 4.6 mph - N/A Rain Rain
2:33 PM 41.0 °F - 39.2 °F 93% 29.67 in 3.0 mi Calm Calm - N/A Rain Rain
3:14 PM 41.0 °F 38.0 °F 39.2 °F 93% 29.66 in 1.5 mi ESE 4.6 mph - N/A Rain Rain
3:33 PM 41.0 °F 38.0 °F 39.2 °F 93% 29.65 in 5.0 mi ESE 4.6 mph - N/A Rain Rain
3:53 PM 41.0 °F 39.0 °F 39.2 °F 93% 29.64 in 10.0 mi East 3.5 mph - 0.01 in Rain Light Rain
4:13 PM 41.0 °F 38.0 °F 39.2 °F 93% 29.63 in 10.0 mi East 4.6 mph - N/A Rain Rain
4:33 PM 41.0 °F - 39.2 °F 93% 29.64 in 7.0 mi Calm Calm - N/A Rain Rain
4:54 PM 41.0 °F - 39.2 °F 93% 29.63 in 7.0 mi Calm Calm - N/A Rain Rain
5:14 PM 41.0 °F 37.1 °F 39.2 °F 93% 29.62 in 10.0 mi SE 5.8 mph - N/A Rain Light Rain
5:34 PM 41.0 °F 38.0 °F 39.2 °F 93% 29.62 in 10.0 mi SSE 4.6 mph - N/A Rain Light Rain
5:53 PM 41.0 °F 38.0 °F 39.2 °F 93% 29.62 in 7.0 mi SE 4.6 mph - N/A Rain Rain
6:13 PM 41.0 °F 39.0 °F 41.0 °F 100% 29.63 in 5.0 mi South 3.5 mph - N/A Rain Rain
6:54 PM 41.0 °F - 39.2 °F 93% 29.62 in 5.0 mi Calm Calm - N/A   Drizzle
7:13 PM 41.0 °F - 39.2 °F 93% 29.62 in 4.0 mi Calm Calm - N/A   Drizzle
7:33 PM 41.0 °F 39.0 °F 39.2 °F 93% 29.62 in 4.0 mi West 3.5 mph - N/A   Overcast
7:54 PM 41.0 °F - 39.2 °F 93% 29.62 in 2.5 mi Calm Calm - N/A   Overcast
8:33 PM 41.0 °F 37.1 °F 39.2 °F 93% 29.62 in 5.0 mi West 5.8 mph - N/A Rain Rain
8:53 PM 41.0 °F 35.8 °F 41.0 °F 100% 29.62 in 7.0 mi West 8.1 mph - N/A Rain Light Rain
9:14 PM 41.0 °F 35.2 °F 39.2 °F 93% 29.62 in 5.0 mi West 9.2 mph - N/A Rain Rain
9:34 PM 41.0 °F 33.9 °F 39.2 °F 93% 29.62 in 5.0 mi West 12.7 mph - N/A   Drizzle
10:14 PM 39.2 °F 32.0 °F 39.2 °F 100% 29.62 in 3.0 mi WNW 11.5 mph - N/A   Light Drizzle
10:34 PM 39.2 °F 32.5 °F 39.2 °F 100% 29.62 in 3.0 mi WNW 10.4 mph 18.4 mph N/A   Light Drizzle
10:54 PM 39.2 °F 32.5 °F 39.2 °F 100% 29.63 in 7.0 mi West 10.4 mph - N/A   Overcast
11:14 PM 39.2 °F 32.5 °F 37.4 °F 93% 29.64 in 7.0 mi West 10.4 mph - N/A   Overcast
11:33 PM 39.2 °F 31.2 °F 37.4 °F 93% 29.65 in 5.0 mi WNW 13.8 mph - N/A   Overcast
11:54 PM 39.2 °F 31.2 °F 37.4 °F 93% 29.66 in 10.0 mi WNW 13.8 mph - N/A   Light Drizzle